When you browse on this site, cookies collect data to enhance your experience and personalize the content and advertising you see.
Visit our Privacy Policy to learn more. By continuing to use the site, you agree to this use of cookies and data.
  • In Hungary
  • List of Countries
  • For 7 days
  • Water Temperature
  • Satellite Maps
  • Weather Map
  • News
  • Weather Widgets
  • user-avatar
    Login

    Hourly Weather Onda

    Today, 17 January, Thursday

    Time Temperature Precipitation Wind Pressure Humidity
    00:00 +8°C° 0 mm 2 mps 741 mmHg 69%
    01:00 +8°C° 0 mm 2 mps 741 mmHg 67%
    02:00 +8°C° 0 mm 2 mps 741 mmHg 65%
    03:00 +8°C° 0 mm 2 mps 740 mmHg 63%
    04:00 +8°C° 0 mm 2 mps 740 mmHg 62%
    05:00 +7°C° 0 mm 2 mps 740 mmHg 61%
    06:00 +7°C° 0 mm 2 mps 740 mmHg 60%
    07:00 +8°C° 0 mm 2 mps 740 mmHg 58%
    08:00 +9°C° 0 mm 2 mps 741 mmHg 56%
    09:00 +10°C° 0 mm 2 mps 741 mmHg 55%
    10:00 +12°C° 0 mm 1 mps 741 mmHg 51%
    11:00 +14°C° 0 mm 1 mps 741 mmHg 47%
    12:00 +15°C° 0 mm 1 mps 741 mmHg 43%
    13:00 +15°C° 0 mm 1 mps 741 mmHg 44%
    14:00 +15°C° 0 mm 2 mps 740 mmHg 44%
    15:00 +15°C° 0 mm 2 mps 740 mmHg 45%
    16:00 +14°C° 0 mm 2 mps 740 mmHg 49%
    17:00 +12°C° 0 mm 2 mps 740 mmHg 53%
    18:00 +10°C° 0 mm 2 mps 741 mmHg 57%
    19:00 +10°C° 0 mm 2 mps 741 mmHg 58%
    20:00 +9°C° 0 mm 2 mps 741 mmHg 58%
    21:00 +8°C° 0 mm 2 mps 742 mmHg 59%
    22:00 +8°C° 0 mm 2 mps 742 mmHg 59%
    23:00 +7°C° 0 mm 2 mps 742 mmHg 59%

    Tomorrow, 18 January, Friday

    Time Temperature Precipitation Wind Pressure Humidity
    00:00 +7°C° 0 mm 3 mps 742 mmHg 59%
    01:00 +7°C° 0 mm 2 mps 742 mmHg 60%
    02:00 +6°C° 0 mm 2 mps 742 mmHg 60%
    03:00 +6°C° 0 mm 2 mps 742 mmHg 61%
    04:00 +6°C° 0 mm 2 mps 742 mmHg 62%
    05:00 +5°C° 0 mm 2 mps 742 mmHg 63%
    06:00 +5°C° 0 mm 2 mps 742 mmHg 64%
    07:00 +6°C° 0 mm 2 mps 742 mmHg 60%
    08:00 +7°C° 0 mm 2 mps 742 mmHg 56%
    09:00 +7°C° 0 mm 2 mps 743 mmHg 53%
    10:00 +9°C° 0 mm 2 mps 742 mmHg 47%
    11:00 +11°C° 0 mm 1 mps 742 mmHg 42%
    12:00 +13°C° 0 mm 1 mps 742 mmHg 36%
    13:00 +13°C° 0 mm 1 mps 742 mmHg 36%
    14:00 +13°C° 0 mm 1 mps 741 mmHg 37%
    15:00 +13°C° 0 mm 2 mps 741 mmHg 37%
    16:00 +12°C° 0 mm 2 mps 741 mmHg 42%
    17:00 +9°C° 0 mm 2 mps 741 mmHg 47%
    18:00 +8°C° 0 mm 2 mps 741 mmHg 52%
    19:00 +8°C° 0 mm 2 mps 741 mmHg 54%
    20:00 +7°C° 0 mm 2 mps 742 mmHg 56%
    21:00 +7°C° 0 mm 2 mps 742 mmHg 57%
    22:00 +7°C° 0 mm 2 mps 742 mmHg 58%
    23:00 +6°C° 0 mm 2 mps 742 mmHg 59%

    Day after tomorrow, 19 January, Saturday

    Time Temperature Precipitation Wind Pressure Humidity
    00:00 +5°C° 0 mm 3 mps 742 mmHg 60%
    01:00 +5°C° 0 mm 3 mps 742 mmHg 61%
    02:00 +6°C° 0 mm 2 mps 742 mmHg 62%
    03:00 +6°C° 0 mm 2 mps 742 mmHg 62%
    04:00 +5°C° 0 mm 2 mps 741 mmHg 62%
    05:00 +5°C° 0 mm 2 mps 741 mmHg 63%
    06:00 +5°C° 0 mm 2 mps 741 mmHg 63%
    07:00 +6°C° 0 mm 2 mps 741 mmHg 59%
    08:00 +7°C° 0 mm 2 mps 741 mmHg 56%
    09:00 +10°C° 0 mm 1 mps 741 mmHg 52%
    10:00 +10°C° 0 mm 2 mps 741 mmHg 49%
    11:00 +12°C° 0 mm 2 mps 741 mmHg 45%
    12:00 +14°C° 0 mm 2 mps 740 mmHg 42%
    13:00 +14°C° 0 mm 2 mps 740 mmHg 44%
    14:00 +13°C° 0 mm 3 mps 739 mmHg 46%
    15:00 +13°C° 0 mm 3 mps 738 mmHg 48%
    16:00 +12°C° 0 mm 3 mps 738 mmHg 55%
    17:00 +11°C° 0 mm 3 mps 738 mmHg 61%
    18:00 +10°C° 0 mm 3 mps 737 mmHg 68%
    19:00 +10°C° 0.5 mm 3 mps 737 mmHg 72%
    20:00 +10°C° 0.5 mm 3 mps 737 mmHg 76%
    21:00 +10°C° 0.5 mm 4 mps 737 mmHg 80%
    22:00 +10°C° 0.1 mm 4 mps 737 mmHg 80%
    23:00 +10°C° 0.1 mm 4 mps 736 mmHg 81%

    20 January, Sunday

    Time Temperature Precipitation Wind Pressure Humidity
    00:00 +8°C° 0.1 mm 4 mps 736 mmHg 81%
    01:00 +9°C° 0.1 mm 3 mps 736 mmHg 80%
    02:00 +9°C° 0.1 mm 3 mps 736 mmHg 80%
    03:00 +9°C° 0.1 mm 3 mps 735 mmHg 79%
    04:00 +9°C° 0 mm 2 mps 735 mmHg 79%
    05:00 +9°C° 0 mm 2 mps 735 mmHg 79%
    06:00 +9°C° 0 mm 2 mps 735 mmHg 78%
    07:00 +9°C° 0.2 mm 2 mps 736 mmHg 77%
    08:00 +10°C° 0.2 mm 2 mps 736 mmHg 75%
    09:00 +12°C° 0.2 mm 2 mps 737 mmHg 74%
    10:00 +12°C° 0 mm 3 mps 737 mmHg 66%
    11:00 +13°C° 0 mm 4 mps 738 mmHg 58%
    12:00 +14°C° 0 mm 4 mps 738 mmHg 50%
    13:00 +14°C° 0 mm 5 mps 738 mmHg 49%
    14:00 +13°C° 0 mm 6 mps 739 mmHg 47%
    15:00 +12°C° 0 mm 7 mps 739 mmHg 46%
    16:00 +11°C° 0 mm 7 mps 740 mmHg 48%
    17:00 +10°C° 0 mm 6 mps 740 mmHg 49%
    18:00 +9°C° 0 mm 6 mps 741 mmHg 51%
    19:00 +9°C° 0.1 mm 6 mps 742 mmHg 54%
    20:00 +8°C° 0.1 mm 5 mps 742 mmHg 57%
    21:00 +8°C° 0.1 mm 5 mps 743 mmHg 60%
    22:00 +8°C° 0.1 mm 5 mps 743 mmHg 60%
    23:00 +8°C° 0.1 mm 5 mps 744 mmHg 61%

    21 January, Monday

    Time Temperature Precipitation Wind Pressure Humidity
    00:00 +8°C° 0.1 mm 4 mps 744 mmHg 62%
    01:00 +8°C° 0 mm 4 mps 744 mmHg 62%
    02:00 +7°C° 0 mm 4 mps 744 mmHg 63%
    03:00 +7°C° 0 mm 4 mps 744 mmHg 63%
    04:00 +7°C° 0 mm 5 mps 744 mmHg 63%
    05:00 +7°C° 0 mm 5 mps 744 mmHg 63%
    06:00 +7°C° 0 mm 5 mps 744 mmHg 63%
    07:00 +7°C° 0 mm 5 mps 745 mmHg 60%
    08:00 +8°C° 0 mm 5 mps 745 mmHg 57%
    09:00 +8°C° 0 mm 5 mps 745 mmHg 54%
    10:00 +11°C° 0 mm 4 mps 745 mmHg 49%
    11:00 +12°C° 0 mm 4 mps 745 mmHg 44%
    12:00 +13°C° 0 mm 4 mps 745 mmHg 39%
    13:00 +13°C° 0 mm 4 mps 745 mmHg 39%
    14:00 +13°C° 0 mm 4 mps 744 mmHg 40%
    15:00 +12°C° 0 mm 4 mps 744 mmHg 41%
    16:00 +11°C° 0 mm 4 mps 744 mmHg 45%
    17:00 +10°C° 0 mm 3 mps 744 mmHg 50%
    18:00 +8°C° 0 mm 3 mps 744 mmHg 55%
    19:00 +8°C° 0 mm 2 mps 744 mmHg 57%
    20:00 +7°C° 0 mm 2 mps 744 mmHg 59%
    21:00 +6°C° 0 mm 2 mps 744 mmHg 61%
    22:00 +6°C° 0 mm 2 mps 744 mmHg 62%
    23:00 +5°C° 0 mm 3 mps 744 mmHg 62%

    22 January, Tuesday

    Time Temperature Precipitation Wind Pressure Humidity
    00:00 +4°C° 0 mm 3 mps 743 mmHg 63%
    01:00 +4°C° 0 mm 3 mps 742 mmHg 63%
    02:00 +4°C° 0 mm 3 mps 741 mmHg 63%
    03:00 +4°C° 0 mm 3 mps 740 mmHg 62%
    04:00 +4°C° 0 mm 3 mps 740 mmHg 61%
    05:00 +4°C° 0 mm 3 mps 739 mmHg 60%
    06:00 +4°C° 0 mm 3 mps 738 mmHg 58%
    07:00 +5°C° 0.1 mm 3 mps 737 mmHg 58%
    08:00 +6°C° 0.1 mm 4 mps 736 mmHg 57%
    09:00 +7°C° 0.1 mm 4 mps 736 mmHg 57%
    10:00 +8°C° 0.2 mm 4 mps 735 mmHg 55%
    11:00 +9°C° 0.2 mm 5 mps 734 mmHg 52%
    12:00 +10°C° 0.2 mm 5 mps 733 mmHg 50%
    13:00 +9°C° 0.5 mm 6 mps 733 mmHg 51%
    14:00 +8°C° 0.5 mm 7 mps 732 mmHg 52%
    15:00 +6°C° 0.5 mm 9 mps 731 mmHg 53%
    16:00 +5°C° 0 mm 8 mps 731 mmHg 52%
    17:00 +4°C° 0 mm 7 mps 732 mmHg 52%
    18:00 +3°C° 0 mm 7 mps 732 mmHg 51%
    19:00 +3°C° 0 mm 7 mps 732 mmHg 52%
    20:00 +2°C° 0 mm 8 mps 731 mmHg 52%
    21:00 +2°C° 0 mm 8 mps 731 mmHg 52%
    22:00 +2°C° 0 mm 9 mps 731 mmHg 52%
    23:00 +2°C° 0 mm 9 mps 731 mmHg 52%
    Show more